SCP
0 0 0 0 0 0 0 0 0 0 0 0 0 0 -0 0 0 0 0 0 0 0 0 0 0 0 0 0 0 0 0 0 0 0 0 0 0 0 0 0 0 0 0 0
0 0 0 0 0 0 0 0 0 0 0 0 0 0 0 0 0 0 0 0 0 0 0 0 0 0 0 0 0 0 0 0 0 0 0 0 0 0 0 0 0 0 0 0
0 0 0 0 0 0 0 0 0 0 0 0 0 0 0 0 0 0 0 0 0 0 0 0 0 0 0 0 0 0 0 0 0 0 0 0 0 0 0 0 0 0 0 0
0 0 0 0 0 0 0 0 0 0 0 0 0 0 0 0 0 0 0 0 0 0 0 0 0 0 0 0 0 0 0 0 0 0 0 0 0 0 0 0 0 0 0 0
0 0 0 0 0 0 0 0 0 0 0 0 0 0 0 0 0 0 0 0 0 0 0 0 0 0 0 0 0 0 0 0 0 0 0 0 0 0 0 0 0 0 0 0
0 0 0 0 0 0 0 0 0 0 0 0 0 0 0 0 0 0 0 0 0 0 0 0 0 0 0 0 0 0 0 0 0 0 0 0 0 0 0 0 0 0 0 0
0 0 0 0 0 0 0 0 0 0 0 0 0 0 0 0 0 0 0 0 0 0 0 0 0 0 0 0 0 0 0 0 0 0 0 0 0 0 0 0 0 0 0 0
0 0 0 0 0 0 0 0 0 0 0 0 0 0 0 0 0 0 0 0 0 0 0 0 0 0 0 0 0 0 0 0 0 0 0 0 0 0 0 0 0 0 0 0
0 0 0 0 0 0 0 0 0 0 0 0 0 0 0 0 0 0 0 0 0 0 0 0 0 0 0 0 0 0 0 0 0 0 0 0 0 0 0 0 0 0 0 0
0 0 0 0 0 0 0 0 0 0 0 0 0 0 0 0 0 0 0 0 0 0 0 0 0 0 0 0 0 0 0 0 0 0 0 0 0 0 0 0 0 0 0 0
0 0 0 0 0 0 0 0 0 0 0 0 0 0 0 0 0 0 0 0 0 0 0 0 0 0 0 0 0 0 0 0 0 0 0 0 0 0 0 0 0 0 0 0
0 0 0 0 0 0 0 0 0 0 0 0 0 0 0 0 0 0 0 0 0 0 0 0 0 0 0 0 0 0 0 0 0 0 0 0 0 0 0 0 0 0 0 0
0 0 0 0 0 0 0 0 0 0 0 0 0 0 0 0 0 0 0 0 0 0 0 0 0 0 0 0 0 0 0 0 0 0 0 0 0 0 0 0 0 0 0 0
0 0 0 0 0 0 0 0 0 0 0 0 0 0 0 0 0 0 0 0 0 0 0 0 0 0 0 0 0 0 0 0 0 0 0 0 0 0 0 0 0 0 0 0
0 0 0 0 0 0 0 0 0 0 0 0 0 0 0 0 0 0 0 0 0 0 0 0 0 0 0 0 0 0 0 0 0 0 0 0 0 0 0 0 0 0 0 0
0 0 0 0 0 0 0 0 0 0 0 0 0 0 0 0 0 0 0 0 0 0 0 0 0 0 0 0 0 0 0 0 0 0 0 0 0 0 0 0 0 0 0 0
0 0 0 0 0 0 0 0 0 0 0 0 0 0 0 0 0 0 0 0 0 0 0 0 0 0 0 0 0 0 0 0 0 0 0 0 0 0 0 0 0 0 0 0
0 0 0 0 0 0 0 0 0 0 0 0 0 0 0 0 0 0 0 0 0 0 0 0 0 0 0 0 0 0 0 0 0 0 0 0 0 0 0 0 0 0 0 0
0 0 0 0 0 0 0 0 0 0 0 0 0 0 0 0 0 0 0 0 0 -0 -0 -0 0 0 0 0 0 0 0 0 0 0 0 0 0 0 0 0 0 0 0 0
0 0 0 0 0 0 0 0 0 0 0 0 0 0 0 0 0 0 0 0 0 -0 -0 -0 0 0 0 0 0 0 0 0 0 0 0 0 0 0 0 0 0 0 0 0
0 0 0 0 0 0 0 0 0 0 0 0 0 0 0 0 0 0 0 0 0 0 0 0 0 0 0 0 0 0 0 0 0 0 0 0 0 0 0 0 0 0 0 0
0 0 0 0 0 0 0 0 0 0 0 0 0 0 0 0 0 0 0 0 0 0 0 0 0 0 0 0 0 0 0 0 0 0 0 0 0 0 0 0 0 0 0 0
0 0 0 0 0 0 0 0 0 0 0 0 0 0 0 0 0 0 0 0 0 0 0 0 0 0 0 0 0 0 0 0 0 0 0 0 0 0 0 0 0 0 0 0
0 0 0 0 0 0 0 0 0 0 0 0 0 0 0 0 0 0 0 0 0 0 0 0 0 0 0 0 0 0 0 0 0 0 0 0 0 0 0 0 0 0 0 0
0 0 0 0 0 0 0 0 0 0 0 0 0 0 0 0 0 0 0 0 0 0 0 0 0 0 0 0 0 0 0 0 0 0 0 0 0 0 0 0 0 0 0 0
0 0 0 0 0 0 0 0 0 0 0 0 0 0 0 0 0 0 0 0 0 0 0 0 0 0 0 0 0 0 0 0 0 0 0 0 0 0 0 0 0 0 0 0
Wind_Speed_500mb
10 11 4 4 2 5 9 4 3 5 3 8 6 17 45 28 45 57 69 73 71 63 46 32 29 24 20 22 29 38 47 49 54 59 64 66 69 72 74 75 77 76 72 69
9 6 4 3 3 7 8 3 6 8 3 4 10 32 43 19 21 46 56 61 75 74 65 52 39 33 26 27 32 40 47 53 54 58 61 66 72 78 79 79 78 76 78 74
8 4 3 4 6 4 5 2 1 6 14 1 15 16 13 4 12 20 28 34 40 60 57 47 42 33 31 32 36 43 50 54 55 58 60 65 72 78 83 84 86 83 82 81
9 2 3 5 6 2 2 3 2 5 11 7 10 11 17 7 17 11 21 21 24 36 42 42 39 33 33 34 38 46 52 55 56 56 61 68 76 84 84 88 91 91 90 86
4 3 2 3 4 1 4 2 4 4 5 6 1 4 17 8 12 12 17 18 23 32 34 37 36 33 33 35 41 48 54 53 54 57 61 68 75 80 86 90 95 94 90 79
6 3 4 3 7 6 8 5 8 7 5 4 2 7 13 8 8 7 3 18 21 30 34 35 33 35 35 38 45 52 50 53 53 57 60 67 75 83 89 91 94 94 88 79
5 3 1 4 6 2 4 7 6 10 6 9 2 2 23 11 10 6 4 5 18 27 32 34 29 33 35 41 51 49 51 53 53 57 62 68 75 81 86 89 88 86 85 85
10 11 9 2 3 9 7 8 9 11 5 9 1 13 13 14 6 19 28 19 13 22 30 29 28 31 35 44 47 46 51 53 55 60 65 70 75 81 85 85 84 84 82 81
8 6 5 9 8 4 6 5 2 11 6 6 8 15 23 13 20 29 43 26 32 30 30 31 24 29 30 43 42 45 50 52 57 61 67 73 78 79 81 80 77 77 77 80
11 3 4 3 2 4 3 5 8 6 2 9 9 9 13 6 3 1 11 40 40 34 34 38 30 25 36 43 42 44 49 54 58 61 66 73 76 78 78 77 76 76 76 75
9 7 2 5 9 11 2 4 7 3 7 9 4 11 15 13 8 14 17 23 30 34 36 42 47 43 47 51 45 45 48 53 56 59 65 71 73 73 73 74 75 73 72 72
11 10 8 15 2 1 3 7 12 8 10 3 1 16 7 12 15 21 31 26 25 26 26 37 51 56 62 56 40 44 45 50 52 57 64 68 71 73 74 74 73 71 69 71
15 3 3 12 7 8 7 10 7 7 5 13 8 13 7 5 15 21 33 27 30 38 45 50 52 61 53 38 38 38 42 46 49 54 60 63 67 70 75 74 71 67 69 70
17 5 14 15 11 11 7 10 11 10 7 8 19 36 26 42 33 33 48 57 60 57 58 60 50 36 33 32 34 34 39 41 46 52 57 63 66 71 74 72 69 68 69 73
10 13 7 5 5 7 10 11 17 22 25 18 35 24 34 45 37 28 47 59 60 70 57 42 37 35 32 30 28 32 35 38 42 47 51 56 60 66 68 66 66 69 72 72
2 6 7 8 1 11 12 18 23 36 27 32 45 57 56 84 75 65 53 53 58 65 59 51 39 33 32 27 26 30 30 32 38 44 48 52 56 64 63 62 63 70 71 73
14 12 7 12 2 3 19 21 41 19 15 31 33 56 48 47 30 37 46 56 66 73 68 50 37 35 30 25 25 27 27 29 34 39 43 47 53 58 59 58 61 68 71 77
15 13 6 6 3 6 13 5 11 37 29 41 45 45 44 50 51 59 77 86 81 58 33 21 21 20 21 23 24 26 24 25 30 34 37 41 46 51 53 56 60 66 71 73
10 11 6 9 10 16 26 15 17 19 22 45 54 45 69 47 43 74 35 22 21 14 13 12 11 14 20 23 25 25 23 23 27 29 31 34 39 44 49 55 59 59 62 68
11 5 12 7 11 22 24 4 15 10 23 32 49 39 27 17 4 10 14 9 11 17 17 16 13 11 16 22 26 26 23 22 25 24 25 27 31 37 42 47 52 53 55 62
9 5 30 25 13 17 23 9 21 10 19 23 48 49 32 13 21 19 17 11 15 18 19 21 19 15 14 20 27 28 24 21 20 18 18 20 24 29 32 39 46 51 58 63
27 22 16 16 18 26 31 12 20 12 9 25 36 38 43 37 29 32 37 35 34 31 31 33 29 29 21 22 28 31 27 22 19 14 11 13 15 20 25 28 33 38 50 59
14 21 20 32 19 12 61 30 71 44 19 12 24 22 22 21 35 46 47 46 43 45 48 46 46 44 38 31 33 35 29 26 22 17 7 9 11 14 16 17 21 25 40 47
8 14 10 10 21 30 64 83 70 51 55 60 48 32 55 59 64 75 71 66 66 61 62 55 53 58 58 47 45 38 37 32 28 25 14 10 8 8 11 11 12 19 33 40
15 25 15 9 18 8 51 80 92 93 84 81 70 63 94 96 90 73 72 63 61 55 50 56 65 65 63 54 53 44 46 40 34 32 25 15 9 8 4 4 3 15 28 34
16 19 19 19 43 37 65 69 73 78 81 87 87 70 67 70 64 60 65 63 60 58 50 51 51 53 51 46 49 48 52 48 43 41 36 25 18 13 8 5 8 4 16 22
Wind_Direction_500mb
20 69 82 111 47 106 110 122 256 258 51 338 253 280 284 251 241 251 247 242 240 235 231 228 236 247 274 299 318 321 322 324 322 320 320 320 323 324 324 325 322 321 321 319
24 67 137 128 61 82 59 85 295 285 48 14 339 289 270 266 237 242 254 249 245 241 239 243 238 246 267 286 305 315 319 321 322 320 319 320 322 322 320 321 320 322 320 318
131 161 157 122 52 71 58 98 11 258 321 164 312 287 304 286 256 262 259 258 248 236 234 230 228 247 264 282 299 308 317 322 322 319 318 319 318 319 321 322 322 321 318 315
83 280 145 86 89 46 261 81 72 354 16 286 9 284 308 327 297 271 269 252 231 210 215 214 226 249 266 277 297 305 316 321 320 319 321 322 321 320 322 321 320 318 317 315
200 140 104 129 127 27 174 85 81 52 70 12 312 91 266 342 294 253 237 227 206 198 208 219 233 259 265 280 295 304 315 319 320 322 322 321 319 320 320 321 319 318 318 315
73 31 27 68 59 40 133 81 50 51 66 1 167 146 281 231 231 299 269 217 208 206 214 223 235 258 265 287 300 308 312 318 320 321 321 321 322 323 323 323 321 321 320 317
2 213 165 122 115 38 103 60 328 347 7 226 30 3 249 293 261 246 320 242 220 217 221 225 241 255 271 291 303 305 310 317 319 321 323 323 324 325 324 325 323 321 319 318
157 310 168 175 225 169 166 166 159 228 254 273 50 230 247 207 264 241 247 249 249 225 225 228 238 256 279 300 302 303 309 315 319 323 324 325 327 327 327 327 324 318 313 311
119 297 3 23 357 32 173 185 161 102 54 38 239 286 293 246 259 248 251 250 237 226 218 216 243 261 279 306 301 302 310 314 320 324 325 328 330 330 330 329 324 317 316 317
197 45 8 4 16 35 236 157 69 4 241 274 274 275 244 286 273 311 248 237 236 233 234 226 243 271 296 315 303 301 309 315 321 324 327 330 332 333 335 331 328 327 324 318
143 114 272 46 194 183 82 325 36 133 157 205 293 255 215 230 241 255 268 255 246 248 251 243 251 271 299 313 298 300 308 313 320 324 330 333 335 336 335 333 332 329 325 325
202 141 175 211 144 90 160 214 177 139 248 257 79 268 332 251 276 280 278 277 272 271 273 271 268 281 293 299 288 298 306 313 321 328 332 336 338 338 337 338 335 333 333 332
191 253 37 340 1 6 197 199 180 113 114 202 156 258 269 292 275 270 262 279 279 280 282 285 282 288 286 281 288 295 306 314 323 330 335 340 341 340 341 342 339 339 339 336
143 141 175 191 195 127 188 213 187 147 142 192 226 272 271 280 266 271 276 280 286 284 284 289 290 287 275 277 287 298 306 317 325 334 340 344 345 343 344 343 342 345 345 344
143 202 164 277 150 150 193 184 182 201 217 199 265 234 266 265 277 275 291 293 289 289 293 285 289 284 268 282 285 297 310 319 329 338 344 345 347 346 346 348 348 353 354 349
201 224 112 290 182 198 257 217 186 215 229 253 259 273 263 272 284 277 277 280 279 286 288 287 290 283 269 279 284 297 311 320 331 340 345 350 351 351 353 355 355 1 357 352
155 134 112 259 29 159 286 202 200 199 191 217 238 243 272 284 264 276 286 288 284 287 292 289 284 279 272 270 286 299 311 323 333 342 347 352 356 356 0 1 5 9 4 357
150 146 135 195 13 217 250 146 181 212 232 221 253 259 258 261 289 295 286 284 286 287 288 280 274 269 262 274 287 297 310 321 333 343 348 356 1 2 10 11 14 15 8 7
158 142 163 186 198 311 287 188 172 174 249 222 234 247 255 278 296 291 305 288 266 229 234 232 238 266 273 279 283 294 303 316 331 341 352 1 6 7 17 18 19 21 18 19
169 357 218 142 206 208 271 163 152 132 270 200 209 232 248 146 286 268 329 275 231 221 215 218 226 255 287 284 279 286 295 309 322 339 354 5 7 10 19 23 27 26 26 25
151 172 213 208 229 277 243 146 151 151 264 188 198 217 182 183 222 283 310 278 250 237 233 231 241 263 282 288 279 279 285 291 307 332 352 9 12 18 27 30 34 40 44 39
169 167 190 210 216 249 153 123 197 239 256 234 200 200 204 235 272 280 277 275 269 262 255 248 252 263 266 277 281 273 277 277 289 303 347 3 7 18 27 32 39 47 45 36
169 181 175 192 203 211 183 218 223 235 246 265 244 236 242 265 291 295 289 292 291 281 271 268 263 267 258 271 280 271 268 265 265 266 304 338 349 7 20 23 31 45 41 41
269 173 196 122 234 226 219 226 236 238 245 257 254 289 294 284 292 295 293 292 292 288 280 281 269 268 262 263 274 272 254 251 250 254 258 296 315 336 11 10 29 35 45 44
180 154 171 261 278 289 250 240 244 249 248 257 262 273 273 275 283 286 291 297 300 300 292 282 274 270 268 262 266 261 249 243 243 245 244 258 261 281 335 346 50 33 37 40
184 173 185 212 216 208 238 242 251 254 255 259 249 252 268 276 281 287 286 295 294 294 290 284 279 275 272 261 255 248 242 238 239 238 240 243 240 238 248 230 167 67 32 31
Wind_Speed_850mb
10 11 4 4 2 5 9 4 3 5 3 8 6 17 45 28 45 57 69 73 71 63 46 32 29 24 20 22 29 38 47 49 54 59 64 66 69 72 74 75 77 76 72 69
9 6 4 3 3 7 8 3 6 8 3 4 10 32 43 19 21 46 56 61 75 74 65 52 39 33 26 27 32 40 47 53 54 58 61 66 72 78 79 79 78 76 78 74
8 4 3 4 6 4 5 2 1 6 14 1 15 16 13 4 12 20 28 34 40 60 57 47 42 33 31 32 36 43 50 54 55 58 60 65 72 78 83 84 86 83 82 81
9 2 3 5 6 2 2 3 2 5 11 7 10 11 17 7 17 11 21 21 24 36 42 42 39 33 33 34 38 46 52 55 56 56 61 68 76 84 84 88 91 91 90 86
4 3 2 3 4 1 4 2 4 4 5 6 1 4 17 8 12 12 17 18 23 32 34 37 36 33 33 35 41 48 54 53 54 57 61 68 75 80 86 90 95 94 90 79
6 3 4 3 7 6 8 5 8 7 5 4 2 7 13 8 8 7 3 18 21 30 34 35 33 35 35 38 45 52 50 53 53 57 60 67 75 83 89 91 94 94 88 79
5 3 1 4 6 2 4 7 6 10 6 9 2 2 23 11 10 6 4 5 18 27 32 34 29 33 35 41 51 49 51 53 53 57 62 68 75 81 86 89 88 86 85 85
10 11 9 2 3 9 7 8 9 11 5 9 1 13 13 14 6 19 28 19 13 22 30 29 28 31 35 44 47 46 51 53 55 60 65 70 75 81 85 85 84 84 82 81
8 6 5 9 8 4 6 5 2 11 6 6 8 15 23 13 20 29 43 26 32 30 30 31 24 29 30 43 42 45 50 52 57 61 67 73 78 79 81 80 77 77 77 80
11 3 4 3 2 4 3 5 8 6 2 9 9 9 13 6 3 1 11 40 40 34 34 38 30 25 36 43 42 44 49 54 58 61 66 73 76 78 78 77 76 76 76 75
9 7 2 5 9 11 2 4 7 3 7 9 4 11 15 13 8 14 17 23 30 34 36 42 47 43 47 51 45 45 48 53 56 59 65 71 73 73 73 74 75 73 72 72
11 10 8 15 2 1 3 7 12 8 10 3 1 16 7 12 15 21 31 26 25 26 26 37 51 56 62 56 40 44 45 50 52 57 64 68 71 73 74 74 73 71 69 71
15 3 3 12 7 8 7 10 7 7 5 13 8 13 7 5 15 21 33 27 30 38 45 50 52 61 53 38 38 38 42 46 49 54 60 63 67 70 75 74 71 67 69 70
17 5 14 15 11 11 7 10 11 10 7 8 19 36 26 42 33 33 48 57 60 57 58 60 50 36 33 32 34 34 39 41 46 52 57 63 66 71 74 72 69 68 69 73
10 13 7 5 5 7 10 11 17 22 25 18 35 24 34 45 37 28 47 59 60 70 57 42 37 35 32 30 28 32 35 38 42 47 51 56 60 66 68 66 66 69 72 72
2 6 7 8 1 11 12 18 23 36 27 32 45 57 56 84 75 65 53 53 58 65 59 51 39 33 32 27 26 30 30 32 38 44 48 52 56 64 63 62 63 70 71 73
14 12 7 12 2 3 19 21 41 19 15 31 33 56 48 47 30 37 46 56 66 73 68 50 37 35 30 25 25 27 27 29 34 39 43 47 53 58 59 58 61 68 71 77
15 13 6 6 3 6 13 5 11 37 29 41 45 45 44 50 51 59 77 86 81 58 33 21 21 20 21 23 24 26 24 25 30 34 37 41 46 51 53 56 60 66 71 73
10 11 6 9 10 16 26 15 17 19 22 45 54 45 69 47 43 74 35 22 21 14 13 12 11 14 20 23 25 25 23 23 27 29 31 34 39 44 49 55 59 59 62 68
11 5 12 7 11 22 24 4 15 10 23 32 49 39 27 17 4 10 14 9 11 17 17 16 13 11 16 22 26 26 23 22 25 24 25 27 31 37 42 47 52 53 55 62
9 5 30 25 13 17 23 9 21 10 19 23 48 49 32 13 21 19 17 11 15 18 19 21 19 15 14 20 27 28 24 21 20 18 18 20 24 29 32 39 46 51 58 63
27 22 16 16 18 26 31 12 20 12 9 25 36 38 43 37 29 32 37 35 34 31 31 33 29 29 21 22 28 31 27 22 19 14 11 13 15 20 25 28 33 38 50 59
14 21 20 32 19 12 61 30 71 44 19 12 24 22 22 21 35 46 47 46 43 45 48 46 46 44 38 31 33 35 29 26 22 17 7 9 11 14 16 17 21 25 40 47
8 14 10 10 21 30 64 83 70 51 55 60 48 32 55 59 64 75 71 66 66 61 62 55 53 58 58 47 45 38 37 32 28 25 14 10 8 8 11 11 12 19 33 40
15 25 15 9 18 8 51 80 92 93 84 81 70 63 94 96 90 73 72 63 61 55 50 56 65 65 63 54 53 44 46 40 34 32 25 15 9 8 4 4 3 15 28 34
16 19 19 19 43 37 65 69 73 78 81 87 87 70 67 70 64 60 65 63 60 58 50 51 51 53 51 46 49 48 52 48 43 41 36 25 18 13 8 5 8 4 16 22
Wind_Direction_850mb
20 69 82 111 47 106 110 122 256 258 51 338 253 280 284 251 241 251 247 242 240 235 231 228 236 247 274 299 318 321 322 324 322 320 320 320 323 324 324 325 322 321 321 319
24 67 137 128 61 82 59 85 295 285 48 14 339 289 270 266 237 242 254 249 245 241 239 243 238 246 267 286 305 315 319 321 322 320 319 320 322 322 320 321 320 322 320 318
131 161 157 122 52 71 58 98 11 258 321 164 312 287 304 286 256 262 259 258 248 236 234 230 228 247 264 282 299 308 317 322 322 319 318 319 318 319 321 322 322 321 318 315
83 280 145 86 89 46 261 81 72 354 16 286 9 284 308 327 297 271 269 252 231 210 215 214 226 249 266 277 297 305 316 321 320 319 321 322 321 320 322 321 320 318 317 315
200 140 104 129 127 27 174 85 81 52 70 12 312 91 266 342 294 253 237 227 206 198 208 219 233 259 265 280 295 304 315 319 320 322 322 321 319 320 320 321 319 318 318 315
73 31 27 68 59 40 133 81 50 51 66 1 167 146 281 231 231 299 269 217 208 206 214 223 235 258 265 287 300 308 312 318 320 321 321 321 322 323 323 323 321 321 320 317
2 213 165 122 115 38 103 60 328 347 7 226 30 3 249 293 261 246 320 242 220 217 221 225 241 255 271 291 303 305 310 317 319 321 323 323 324 325 324 325 323 321 319 318
157 310 168 175 225 169 166 166 159 228 254 273 50 230 247 207 264 241 247 249 249 225 225 228 238 256 279 300 302 303 309 315 319 323 324 325 327 327 327 327 324 318 313 311
119 297 3 23 357 32 173 185 161 102 54 38 239 286 293 246 259 248 251 250 237 226 218 216 243 261 279 306 301 302 310 314 320 324 325 328 330 330 330 329 324 317 316 317
197 45 8 4 16 35 236 157 69 4 241 274 274 275 244 286 273 311 248 237 236 233 234 226 243 271 296 315 303 301 309 315 321 324 327 330 332 333 335 331 328 327 324 318
143 114 272 46 194 183 82 325 36 133 157 205 293 255 215 230 241 255 268 255 246 248 251 243 251 271 299 313 298 300 308 313 320 324 330 333 335 336 335 333 332 329 325 325
202 141 175 211 144 90 160 214 177 139 248 257 79 268 332 251 276 280 278 277 272 271 273 271 268 281 293 299 288 298 306 313 321 328 332 336 338 338 337 338 335 333 333 332
191 253 37 340 1 6 197 199 180 113 114 202 156 258 269 292 275 270 262 279 279 280 282 285 282 288 286 281 288 295 306 314 323 330 335 340 341 340 341 342 339 339 339 336
143 141 175 191 195 127 188 213 187 147 142 192 226 272 271 280 266 271 276 280 286 284 284 289 290 287 275 277 287 298 306 317 325 334 340 344 345 343 344 343 342 345 345 344
143 202 164 277 150 150 193 184 182 201 217 199 265 234 266 265 277 275 291 293 289 289 293 285 289 284 268 282 285 297 310 319 329 338 344 345 347 346 346 348 348 353 354 349
201 224 112 290 182 198 257 217 186 215 229 253 259 273 263 272 284 277 277 280 279 286 288 287 290 283 269 279 284 297 311 320 331 340 345 350 351 351 353 355 355 1 357 352
155 134 112 259 29 159 286 202 200 199 191 217 238 243 272 284 264 276 286 288 284 287 292 289 284 279 272 270 286 299 311 323 333 342 347 352 356 356 0 1 5 9 4 357
150 146 135 195 13 217 250 146 181 212 232 221 253 259 258 261 289 295 286 284 286 287 288 280 274 269 262 274 287 297 310 321 333 343 348 356 1 2 10 11 14 15 8 7
158 142 163 186 198 311 287 188 172 174 249 222 234 247 255 278 296 291 305 288 266 229 234 232 238 266 273 279 283 294 303 316 331 341 352 1 6 7 17 18 19 21 18 19
169 357 218 142 206 208 271 163 152 132 270 200 209 232 248 146 286 268 329 275 231 221 215 218 226 255 287 284 279 286 295 309 322 339 354 5 7 10 19 23 27 26 26 25
151 172 213 208 229 277 243 146 151 151 264 188 198 217 182 183 222 283 310 278 250 237 233 231 241 263 282 288 279 279 285 291 307 332 352 9 12 18 27 30 34 40 44 39
169 167 190 210 216 249 153 123 197 239 256 234 200 200 204 235 272 280 277 275 269 262 255 248 252 263 266 277 281 273 277 277 289 303 347 3 7 18 27 32 39 47 45 36
169 181 175 192 203 211 183 218 223 235 246 265 244 236 242 265 291 295 289 292 291 281 271 268 263 267 258 271 280 271 268 265 265 266 304 338 349 7 20 23 31 45 41 41
269 173 196 122 234 226 219 226 236 238 245 257 254 289 294 284 292 295 293 292 292 288 280 281 269 268 262 263 274 272 254 251 250 254 258 296 315 336 11 10 29 35 45 44
180 154 171 261 278 289 250 240 244 249 248 257 262 273 273 275 283 286 291 297 300 300 292 282 274 270 268 262 266 261 249 243 243 245 244 258 261 281 335 346 50 33 37 40
184 173 185 212 216 208 238 242 251 254 255 259 249 252 268 276 281 287 286 295 294 294 290 284 279 275 272 261 255 248 242 238 239 238 240 243 240 238 248 230 167 67 32 31